Temp
16 16 14 15 16 17 16 17 16 17 16 14 12 11 11 11 10 10 9 8 8 9 11 12 13 13 12 13 13 13 12 12 12 12 12 11 11 12 12 12 12 11 11 11
15 15 15 16 15 16 16 16 16 15 15 15 12 11 12 11 10 9 9 9 9 9 10 11 11 11 12 12 12 12 13 13 12 12 12 11 12 11 11 11 11 11 11 11
15 17 17 17 14 14 15 16 14 14 14 14 12 12 12 11 10 10 9 9 9 9 8 9 9 9 9 10 10 11 12 12 12 12 12 12 11 11 10 11 11 11 10 11
15 16 16 15 15 14 14 16 14 13 13 12 13 11 11 9 8 8 7 8 8 8 8 9 9 9 9 9 9 10 10 11 12 12 11 11 10 9 10 10 10 10 10 10
16 15 14 15 15 15 14 14 12 12 11 12 13 10 9 7 7 6 6 7 8 8 8 7 8 8 8 9 9 9 10 10 10 10 10 10 10 10 10 10 10 10 10 10
15 16 15 16 15 15 13 12 12 11 10 11 12 11 5 5 6 6 6 7 7 7 7 7 7 7 8 8 8 9 9 10 10 10 10 10 9 9 9 10 9 9 9 9
13 15 14 14 14 13 11 9 11 13 11 14 12 10 5 6 6 6 6 7 7 7 7 7 7 7 8 8 8 7 8 8 8 9 9 9 9 9 9 9 9 8 8 8
11 15 13 13 14 13 11 9 9 11 10 12 10 9 6 7 7 7 7 7 7 6 7 6 7 7 7 7 7 7 7 7 7 8 8 9 9 8 8 8 8 8 7 7
10 14 13 12 11 11 11 9 10 9 8 6 8 6 6 7 7 7 6 6 6 6 6 6 7 7 7 7 7 7 7 6 7 7 7 8 7 7 7 7 8 7 7 7
10 10 11 12 12 11 9 9 8 6 3 5 6 7 5 5 6 6 5 5 6 6 6 6 6 7 7 7 6 6 6 6 7 7 6 6 7 7 7 6 6 6 7 7
9 9 12 10 9 9 7 7 7 6 5 2 2 5 7 5 6 5 5 5 5 5 6 6 6 6 7 7 6 6 6 6 7 7 7 7 7 7 6 6 6 6 6 6
8 6 8 9 9 8 8 8 5 1 3 2 -1 2 5 6 6 5 5 5 5 5 5 6 6 6 6 6 6 6 6 6 7 7 7 7 6 6 6 6 6 6 5 5
8 6 6 10 9 7 5 6 6 4 -0 -2 -3 2 8 6 5 5 4 4 5 5 5 6 6 6 6 6 6 6 6 6 6 6 6 6 6 5 6 5 4 4 3 4
8 5 7 6 7 4 5 6 5 2 -3 -2 2 3 5 4 4 4 4 4 5 5 5 6 6 6 6 6 6 6 6 6 6 5 5 5 5 4 4 4 3 3 3 4
5 7 6 7 6 6 6 5 5 -0 3 -2 3 3 4 4 4 4 4 5 5 5 5 6 6 6 6 6 6 5 5 5 4 4 4 3 3 4 4 4 3 4 4 4
4 5 5 5 5 5 4 4 4 5 4 3 3 3 4 4 4 4 4 5 4 5 6 6 6 6 6 6 5 4 3 2 3 3 3 3 3 4 3 3 3 3 3 3
4 3 1 5 2 4 3 4 4 4 4 3 2 2 4 4 4 4 4 4 5 5 5 6 6 6 5 4 3 2 2 2 2 2 3 3 3 3 3 3 3 3 3 3
4 2 -2 -1 3 1 4 4 4 4 4 3 3 4 4 4 4 4 4 5 5 5 5 5 5 4 4 2 2 2 2 2 2 2 2 2 3 3 3 3 2 3 3 3
2 0 -5 -2 -0 3 4 4 3 3 3 3 3 3 4 4 4 5 6 5 5 5 5 5 5 4 2 1 1 1 2 2 2 2 3 3 3 2 2 2 3 4 5 5
2 -1 -3 -6 -2 2 3 4 4 3 1 3 3 3 3 3 2 3 5 5 5 5 4 4 4 4 1 1 1 1 2 2 3 3 3 3 3 3 3 4 4 4 5 5
-3 -6 -4 -3 -5 0 3 3 3 1 1 3 3 3 3 2 3 4 5 4 4 4 4 4 4 3 2 1 1 1 2 3 3 3 4 4 4 4 4 4 4 3 4 4
1 -3 -5 -7 -6 1 4 3 2 2 3 3 3 3 3 3 3 4 4 4 3 4 4 4 3 1 1 1 1 1 2 2 3 4 4 5 5 4 4 3 3 3 4 4
1 0 -2 -1 1 2 3 3 3 2 2 2 3 3 3 3 3 3 3 3 3 3 3 3 2 1 1 1 1 1 2 3 4 4 5 5 5 4 4 4 4 4 4 4
3 1 -0 1 4 4 2 2 2 2 2 3 3 3 3 3 3 3 3 2 3 3 3 2 1 1 1 1 1 1 2 3 4 5 5 4 4 3 3 3 3 3 3 3
1 1 1 0 1 1 2 2 2 2 3 3 3 3 3 3 2 2 2 2 2 3 3 2 1 1 1 0 1 1 2 3 5 5 4 4 3 3 3 3 3 3 3 3
0 1 1 0 1 1 0 1 2 2 2 2 2 2 3 3 2 2 2 2 2 2 2 2 1 0 0 0 1 1 2 3 5 4 4 4 3 3 3 3 3 3 3 3
Height
843 854 874 872 867 864 868 870 871 863 861 869 877 877 877 871 868 871 873 872 868 863 857 853 848 843 839 834 830 825 820 815 811 809 808 803 798 792 790 788 785 783 780 777
860 874 873 869 871 870 868 866 866 863 863 866 880 885 879 881 881 883 883 877 873 869 862 855 849 843 838 832 827 822 817 813 809 807 803 797 793 789 787 785 780 776 774 771
873 875 867 866 873 872 870 867 872 874 866 859 874 881 878 881 887 885 882 881 877 873 867 859 852 844 836 829 823 817 813 809 807 804 799 793 788 785 782 780 775 771 769 765
874 871 871 875 877 880 880 865 867 866 868 874 867 884 880 888 893 893 892 886 881 874 868 859 852 845 838 830 823 815 812 808 804 800 795 791 786 781 775 771 768 765 763 760
880 879 881 881 881 879 881 868 872 872 873 870 867 882 892 894 899 899 896 890 884 877 871 862 852 845 837 828 820 816 808 804 802 798 792 786 780 775 768 764 761 759 757 754
880 873 877 880 878 877 875 871 867 873 883 880 874 879 915 913 912 905 899 892 885 876 868 860 852 842 834 826 819 814 805 799 796 791 787 781 775 770 765 760 756 752 748 744
890 884 883 880 883 880 888 891 888 878 881 869 872 884 916 911 908 905 898 890 883 874 866 856 847 839 831 824 817 811 804 796 791 785 779 774 770 766 760 755 750 744 740 736
915 895 895 890 892 895 897 905 917 906 904 881 883 893 911 905 904 901 895 885 875 869 866 859 849 840 831 821 813 807 800 792 785 778 772 767 762 756 751 746 741 735 731 727
922 901 898 898 900 900 905 918 912 916 915 927 901 909 910 902 891 891 892 885 877 869 863 856 845 836 828 820 812 803 794 786 780 773 766 759 752 746 740 736 731 726 722 718
923 922 907 904 904 910 919 919 928 940 965 942 917 911 920 913 903 898 892 883 873 865 858 851 842 831 822 815 808 800 791 783 773 765 758 750 743 736 730 725 720 716 712 708
926 926 909 908 923 926 930 936 936 942 948 970 960 924 908 916 910 907 897 886 877 866 855 845 836 827 818 809 801 792 785 775 766 758 749 741 733 727 721 715 709 705 701 698
928 938 932 927 927 924 928 932 943 971 964 962 982 949 914 910 908 905 895 885 875 864 852 841 832 822 813 804 794 785 776 766 758 749 741 732 724 718 712 705 700 696 691 688
932 944 955 929 931 932 942 942 942 950 973 985 999 947 906 911 906 901 895 883 871 859 847 835 826 816 807 797 787 777 768 758 749 740 732 722 715 709 702 696 692 687 682 678
930 945 945 958 939 950 946 943 948 960 998 988 960 935 917 915 907 895 888 878 867 855 844 833 821 811 801 790 780 770 760 751 740 731 723 715 706 700 693 686 681 676 672 667
939 941 943 943 947 946 945 948 951 975 956 987 940 934 923 921 911 900 887 874 861 850 838 827 816 805 794 783 773 765 754 743 734 723 716 707 698 690 683 677 672 666 661 657
948 950 950 948 951 952 954 952 952 947 945 947 938 932 924 914 907 895 883 871 860 846 833 823 811 800 789 778 768 758 748 736 726 716 705 697 690 683 676 669 663 657 651 646
952 958 971 950 962 953 960 954 951 948 946 946 943 936 921 908 899 891 880 871 859 845 833 822 809 799 787 776 766 753 741 728 718 708 699 692 684 676 669 663 655 648 640 634
952 963 984 986 961 981 953 949 949 948 939 938 939 932 926 915 901 890 878 869 857 844 832 820 808 797 785 774 762 750 737 724 713 703 694 687 680 671 664 657 649 639 630 621
956 972 1008 994 985 960 950 950 951 949 937 934 934 924 916 906 894 881 875 865 855 844 832 820 808 796 784 771 758 745 733 722 711 701 690 682 676 668 662 653 644 634 626 612
960 972 990 1016 1004 971 954 950 945 944 949 935 933 927 915 904 896 879 868 862 852 842 832 818 806 794 782 769 756 744 732 721 710 698 687 678 672 666 661 654 648 642 631 621
989 1003 1002 1000 1019 973 956 950 945 964 954 932 931 925 917 913 904 885 872 861 852 841 830 817 806 794 782 768 756 744 733 722 710 698 688 680 671 668 664 661 656 651 643 634
969 994 1005 1017 1019 973 950 949 958 952 939 936 930 921 914 906 895 883 871 861 850 838 827 816 806 794 781 769 758 746 734 722 711 701 692 684 678 676 672 669 666 661 656 652
970 966 983 978 965 952 950 948 946 944 940 931 926 917 910 901 893 882 871 860 851 841 830 819 810 797 782 770 760 749 736 724 715 706 699 694 689 684 681 678 675 671 669 668
954 958 966 963 951 949 948 945 942 940 935 928 922 916 907 900 891 881 871 861 851 841 830 821 810 799 786 773 761 752 740 729 722 715 709 704 700 696 692 689 686 684 683 683
957 957 959 961 954 949 944 942 937 933 930 924 918 913 908 901 890 881 871 861 852 842 832 823 814 803 791 779 766 755 745 736 729 724 720 715 713 709 707 705 703 701 700 699
955 954 959 962 951 951 947 939 935 933 928 924 918 910 903 900 891 882 871 862 853 843 833 823 815 805 795 783 771 760 751 743 738 734 730 728 725 723 722 720 720 720 718 716
Wind_Speed
7 10 5 5 3 3 5 2 5 3 3 6 5 6 6 5 10 11 9 9 10 10 15 18 20 21 18 18 18 18 20 20 20 17 18 21 25 28 24 25 23 26 27 25
7 8 6 3 6 4 2 1 4 6 4 4 2 5 3 8 7 8 13 15 15 14 15 24 28 30 32 27 26 24 21 21 21 20 20 22 23 25 26 29 28 28 27 26
8 4 3 4 6 10 4 1 3 6 4 1 6 2 0 5 13 18 18 16 19 18 18 22 27 28 31 34 34 34 30 26 22 21 23 25 27 25 25 27 26 26 23 23
6 4 4 8 5 5 5 2 8 9 3 4 4 3 2 6 15 16 18 19 19 18 18 24 26 28 30 34 38 36 30 29 21 22 24 25 28 27 29 26 26 25 23 25
1 6 6 7 3 3 6 17 10 4 3 3 0 1 3 9 12 15 15 16 17 17 18 19 27 30 31 35 36 36 32 26 26 29 30 31 32 32 28 28 29 29 29 28
2 1 3 3 3 2 9 7 2 3 3 2 3 2 2 4 8 11 11 16 18 18 17 25 31 35 35 37 37 39 37 36 34 33 35 33 30 28 27 28 30 33 33 32
6 3 5 4 6 6 10 6 5 6 5 3 2 4 4 3 3 7 14 18 19 21 21 21 30 32 34 34 35 34 34 37 40 39 38 34 27 29 31 32 32 33 31 31
6 5 7 8 3 3 5 5 4 6 4 10 8 1 3 3 3 11 14 21 23 24 21 21 33 32 33 35 36 36 37 36 40 41 42 39 41 37 36 35 35 34 32 31
6 1 4 9 6 4 6 6 2 4 1 2 3 5 5 17 27 28 23 23 23 23 21 21 33 34 34 32 36 36 38 39 37 38 39 41 41 37 37 38 37 36 36 33
3 4 3 4 5 10 8 4 5 4 5 6 3 3 5 16 24 25 26 27 28 26 25 23 32 35 36 35 35 34 37 37 39 40 39 37 38 40 39 38 35 34 36 34
4 1 2 3 6 2 6 4 4 2 3 3 5 3 2 14 19 19 25 25 24 25 24 22 32 35 35 38 37 37 36 36 38 38 38 37 37 36 34 35 35 33 36 35
2 2 1 2 2 7 5 2 3 4 6 2 3 6 3 17 19 19 23 24 24 23 23 28 33 34 36 37 38 38 39 38 38 38 38 38 38 37 38 36 31 35 33 34
4 3 3 3 2 5 6 3 3 1 3 3 2 6 15 18 21 22 23 25 24 24 24 24 31 33 36 38 39 40 40 40 40 39 38 40 39 39 36 32 36 32 35 30
1 3 4 5 5 3 2 3 4 4 3 3 5 16 21 18 26 26 26 25 24 22 23 23 26 34 38 40 40 39 40 41 40 38 39 38 38 34 36 35 32 32 32 32
3 2 1 0 2 3 2 4 5 2 5 3 12 19 19 17 21 23 25 26 25 25 25 25 24 31 38 38 40 39 40 40 40 39 36 36 36 35 34 30 31 30 30 27
3 1 3 0 3 2 3 4 6 4 4 7 14 18 6 20 20 21 25 25 25 26 29 29 29 36 36 40 41 40 41 41 42 37 37 36 34 33 28 31 29 29 30 30
2 2 2 1 5 3 3 1 3 8 6 9 8 7 17 27 25 23 26 23 23 28 28 28 28 36 40 42 41 42 43 43 39 36 34 32 31 30 29 30 30 29 28 29
3 3 2 1 3 3 3 4 4 9 13 7 5 16 18 20 22 24 19 19 26 26 27 27 36 41 42 44 44 43 42 39 36 35 33 30 29 30 30 29 29 30 30 30
5 3 3 3 2 4 2 4 5 7 18 3 14 23 22 22 21 15 19 25 25 29 36 37 42 41 43 43 43 41 39 37 34 31 31 30 29 28 27 28 30 26 22 26
6 6 4 4 2 3 4 5 7 2 4 2 17 19 22 23 14 18 28 34 34 39 38 41 44 41 42 43 42 38 36 35 32 34 34 32 29 26 25 23 24 26 26 28
3 3 3 1 3 6 4 7 6 5 7 19 16 18 20 14 13 22 33 33 38 38 40 45 41 41 42 42 39 36 35 32 38 37 35 30 29 23 21 23 25 26 28 38
4 4 2 3 2 3 2 3 3 6 11 12 15 17 18 19 21 21 25 30 35 37 41 42 38 43 44 42 38 36 34 39 37 36 31 30 26 25 25 26 26 26 27 33
1 5 3 6 4 3 4 4 5 6 11 10 16 18 17 19 19 21 20 30 33 35 38 39 37 40 44 44 40 35 39 40 35 32 30 27 29 30 29 28 26 24 28 30
2 3 2 2 2 3 6 5 5 7 10 15 20 17 16 16 19 21 24 29 31 35 37 37 37 38 39 44 44 39 39 40 31 26 28 27 29 31 32 31 30 27 26 28
3 4 3 3 5 7 3 5 7 10 16 18 23 22 18 18 19 21 24 29 32 34 36 34 35 37 38 42 42 41 40 40 27 25 26 26 27 30 35 37 33 34 33 29
3 4 3 4 5 4 7 8 15 10 13 19 16 17 24 21 23 28 26 30 32 34 36 36 35 37 39 40 40 40 42 37 26 23 23 24 23 25 28 32 37 44 43 43
Wind_Direction
13 66 72 75 62 188 230 261 291 282 347 61 67 69 27 11 48 35 19 5 352 341 329 340 339 336 336 340 341 347 351 348 350 336 311 319 310 307 303 316 309 313 311 301
42 52 344 141 23 18 52 190 286 299 8 78 103 79 42 27 37 27 17 8 0 351 349 347 347 347 344 334 334 330 334 335 334 328 324 324 325 311 293 304 311 309 309 305
84 334 329 52 13 10 335 212 274 250 330 105 146 131 89 80 36 32 19 12 5 358 349 344 343 343 343 342 339 332 318 317 312 313 316 317 315 307 301 308 310 307 307 308
80 343 36 34 44 8 305 236 289 293 142 189 135 255 85 8 28 24 14 10 359 347 337 335 334 333 334 333 336 335 332 319 306 312 311 306 304 301 303 308 313 309 305 305
279 14 21 32 353 325 275 306 299 290 168 135 114 115 5 49 15 7 1 350 341 332 331 328 328 327 323 335 332 331 340 336 322 320 319 309 302 304 304 310 313 313 306 301
53 80 68 307 330 348 294 325 31 65 90 347 158 75 36 27 357 346 340 344 337 331 323 320 323 324 325 325 326 323 334 329 328 327 324 318 308 303 303 305 309 312 308 303
342 27 355 22 356 12 18 4 349 353 3 255 206 346 71 65 357 329 336 338 339 338 335 330 324 322 324 320 321 314 321 322 326 326 324 322 312 307 302 298 301 304 300 301
21 346 9 329 40 310 26 62 102 291 299 299 309 224 159 175 266 331 327 341 343 341 331 321 314 314 316 317 319 317 317 313 315 318 317 319 317 311 308 305 303 299 292 297
2 310 340 39 32 13 342 34 260 267 310 351 310 67 297 351 1 352 338 329 327 327 324 320 314 314 315 313 313 311 311 310 308 307 304 307 308 305 299 300 299 295 298 296
345 310 24 335 36 28 89 311 10 22 341 310 328 25 302 355 347 343 334 329 325 325 321 318 318 313 312 311 310 305 308 305 306 306 299 298 298 295 295 293 285 285 292 291
9 98 312 57 35 21 12 19 37 156 155 225 308 282 323 354 338 331 324 322 321 318 316 317 315 314 312 312 310 309 309 305 304 303 300 299 298 293 295 291 283 284 286 288
329 130 345 94 70 93 96 69 106 115 287 239 166 276 347 344 332 325 320 318 317 314 313 315 315 314 314 313 313 311 309 306 305 304 303 303 299 300 301 295 287 296 283 286
344 14 10 357 343 10 49 8 15 98 75 225 106 279 324 330 322 321 321 316 315 313 315 316 318 319 317 315 314 312 311 310 308 307 306 304 302 300 298 297 294 289 288 284
98 94 135 201 236 198 334 24 31 84 69 267 246 295 315 326 324 323 319 315 314 313 317 315 317 317 315 313 314 316 313 312 310 306 303 304 301 303 298 294 291 285 284 278
69 97 328 87 110 350 55 66 349 103 250 156 296 299 303 321 316 313 310 312 314 316 317 320 320 319 317 320 319 319 316 314 312 309 307 303 301 299 297 295 293 291 289 281
354 216 11 176 5 324 97 28 328 261 315 299 289 298 313 313 316 318 316 318 318 319 324 323 322 322 324 322 322 319 317 314 313 310 305 302 302 303 302 302 297 294 291 285
53 102 61 305 0 104 334 343 302 291 287 277 290 298 323 322 322 322 316 309 314 321 321 322 323 325 324 325 324 319 318 314 312 308 308 310 311 309 307 307 303 301 297 292
120 94 73 224 25 356 263 232 290 279 306 283 304 322 316 309 308 309 303 315 321 321 324 324 325 325 326 323 322 321 319 318 315 312 313 313 314 312 314 317 313 305 300 294
52 96 36 94 186 304 356 333 315 324 310 163 335 325 318 317 315 309 325 326 323 326 325 324 325 324 327 323 324 323 322 322 321 319 318 319 320 321 323 318 320 330 341 327
71 74 106 43 76 242 176 287 285 324 281 320 332 318 318 328 333 322 326 324 324 326 327 326 329 329 329 328 327 327 327 327 330 329 324 321 324 324 328 349 21 28 19 33
24 7 125 148 242 287 264 306 310 54 264 327 319 312 318 318 304 304 316 322 324 325 327 330 334 334 333 332 333 333 331 331 330 327 330 337 342 1 30 43 38 40 45 55
171 135 206 85 49 325 309 345 102 245 295 299 307 313 313 310 311 318 320 323 327 329 331 335 337 334 334 337 338 334 333 331 333 338 344 358 22 53 50 47 43 47 57 64
306 177 183 173 223 228 241 235 250 270 300 307 313 312 311 311 317 319 324 324 327 330 331 337 339 334 336 339 340 337 335 336 341 350 6 24 42 48 48 42 42 49 58 65
234 153 159 42 311 300 310 289 265 294 292 305 311 308 313 315 320 319 325 326 329 331 336 339 338 338 336 339 340 341 341 344 353 3 20 27 43 51 50 43 46 51 57 65
198 137 172 270 296 313 218 286 284 303 313 316 318 316 316 320 318 322 325 326 329 330 336 341 340 339 339 340 339 342 347 353 3 25 32 37 49 57 62 58 56 60 61 69
190 180 153 229 227 204 267 289 308 317 313 315 314 316 325 325 320 324 324 328 331 333 338 341 343 340 340 340 340 344 355 357 20 33 35 43 46 58 64 68 68 67 72 73